GEFSMA_prec_meanprecacc_228.txt.gz
Total_Precipitation_Accumulation
1.84 1.99 1.96 2.17 2.16 2.23 2.44 2.79 2.85 3.03 3.09 3.05 2.73 2.38 2.23 2.08 1.91 2.06 2.19 2.08 1.99 2.20 2.66 3.06 2.97 2.74 2.48 2.45 2.24 1.86 1.63 1.52 1.35 1.07 0.97 1.04 1.03 0.95 0.86 0.81 0.76 0.71 0.59
2.40 2.62 2.64 2.67 2.46 2.43 2.70 2.96 3.08 3.59 3.54 3.39 2.91 2.62 2.36 2.25 2.07 2.01 2.21 2.35 2.03 1.99 2.32 2.97 3.28 3.06 2.83 2.80 2.53 2.08 1.79 1.63 1.51 1.14 0.92 0.94 1.00 1.00 0.94 0.89 0.79 0.67 0.55
2.79 2.96 2.92 2.83 2.78 2.76 2.95 3.14 3.32 3.49 3.32 3.20 3.03 2.80 2.56 2.33 2.04 2.02 2.07 2.28 2.16 2.00 2.19 2.54 2.95 3.03 3.06 3.06 2.79 2.39 1.94 1.67 1.46 1.20 0.92 0.86 0.90 0.92 0.91 0.91 0.84 0.66 0.48
2.94 3.26 3.08 2.92 3.20 3.05 3.21 3.62 3.63 3.64 3.60 3.40 3.20 2.93 2.69 2.45 1.99 1.87 1.85 2.13 2.45 2.12 2.22 2.48 2.62 2.70 3.10 3.23 3.07 2.86 2.44 1.95 1.53 1.28 1.06 1.00 1.00 0.97 0.94 0.86 0.84 0.66 0.45
2.85 3.14 3.04 3.08 3.14 3.40 3.45 3.22 3.73 3.80 3.70 3.52 2.98 2.78 2.43 2.21 2.00 1.79 1.86 1.88 2.17 2.09 2.15 2.24 2.40 2.54 3.01 3.50 3.59 3.47 3.17 2.70 2.11 1.75 1.67 1.58 1.52 1.34 1.13 0.96 0.82 0.69 0.49
2.72 3.11 2.94 2.92 3.02 3.34 3.34 3.34 3.68 3.67 3.42 3.42 2.79 2.49 2.29 1.91 1.89 1.91 1.70 1.72 1.82 1.61 1.83 2.11 2.54 2.20 2.32 2.66 3.16 3.51 3.62 3.53 3.07 2.90 2.91 2.65 2.41 1.97 1.44 1.14 0.92 0.79 0.63
2.60 3.00 2.75 3.03 2.96 3.06 3.10 3.12 3.37 3.46 3.15 3.19 3.19 2.73 2.12 1.71 1.66 1.64 1.65 1.71 1.60 1.66 2.07 2.44 2.60 2.55 2.26 2.00 2.12 2.65 3.39 3.81 3.53 3.24 3.33 3.37 3.27 2.67 1.89 1.44 1.12 0.90 0.76
2.44 2.60 2.80 2.67 2.70 2.87 2.90 2.93 3.19 3.15 2.77 2.85 3.11 3.14 2.51 2.17 1.70 1.28 1.56 1.63 1.60 1.82 1.95 2.04 2.38 2.66 2.56 2.64 2.07 1.89 2.54 3.30 3.58 3.39 3.23 3.40 3.43 2.83 2.15 1.84 1.47 1.13 0.96
2.27 2.34 2.50 2.51 2.51 2.42 2.64 2.82 2.76 2.77 2.63 2.54 2.70 3.08 2.81 2.40 1.96 1.44 1.28 1.34 1.56 1.79 1.81 1.94 1.96 2.15 2.22 2.61 2.59 2.09 1.91 2.19 2.89 3.54 3.57 3.41 3.24 2.75 2.33 2.13 1.89 1.50 1.27
2.06 2.06 2.11 2.13 2.18 2.19 2.46 2.25 2.26 2.50 2.62 2.49 2.51 2.50 2.51 2.57 2.46 1.87 1.40 1.29 1.49 1.64 1.64 1.56 1.69 1.91 1.96 2.17 2.32 2.09 1.81 1.68 2.02 2.77 3.32 3.39 3.13 2.63 2.35 2.34 2.46 2.23 1.74
1.93 1.82 1.93 1.96 1.96 1.97 2.07 2.09 2.33 2.33 2.40 2.38 2.38 2.36 2.45 2.49 2.35 2.17 1.82 1.64 1.57 1.38 1.38 1.44 1.56 1.77 1.90 2.01 2.22 2.03 1.99 1.71 1.72 1.92 2.37 2.79 2.92 2.80 2.50 2.50 2.86 2.99 2.63
1.75 1.74 1.80 1.89 1.85 1.84 1.97 2.03 2.07 2.09 2.16 2.23 2.19 2.17 2.36 2.27 2.20 2.29 1.99 1.83 1.76 1.47 1.44 1.46 1.46 1.58 1.66 1.75 1.63 1.73 1.72 1.52 1.45 1.42 1.47 1.80 2.17 2.37 2.45 2.60 2.95 3.22 3.23
1.51 1.51 1.62 1.72 1.67 1.67 1.79 1.89 1.90 2.00 2.07 2.09 2.04 2.06 2.12 2.06 2.07 2.20 2.25 2.05 1.90 1.60 1.58 1.50 1.40 1.52 1.48 1.69 1.63 1.46 1.25 1.17 1.05 1.02 1.06 1.20 1.40 1.63 1.85 2.15 2.58 2.93 3.12
1.38 1.45 1.53 1.53 1.53 1.55 1.57 1.86 1.90 1.95 2.02 1.99 1.87 2.15 2.08 1.85 1.92 2.07 2.28 2.48 2.34 1.96 1.88 1.70 1.48 1.41 1.48 1.55 1.47 1.29 1.02 0.94 0.86 0.82 0.80 0.86 1.00 1.13 1.29 1.47 1.77 2.02 2.26
1.59 1.61 1.58 1.58 1.60 1.67 1.79 2.01 2.07 2.04 2.06 2.02 2.07 2.21 2.06 1.85 1.84 1.88 2.20 2.50 2.68 2.38 2.08 1.84 1.67 1.41 1.42 1.33 1.31 1.19 1.16 0.99 0.79 0.75 0.72 0.67 0.72 0.83 0.95 1.06 1.19 1.34 1.46
1.79 1.76 1.73 1.68 1.64 1.71 1.90 2.06 2.08 2.04 2.09 2.12 2.16 2.28 2.27 2.10 2.08 2.05 2.23 2.46 2.64 2.70 2.29 1.92 1.86 1.56 1.45 1.23 1.28 1.16 1.08 1.06 0.84 0.71 0.69 0.63 0.62 0.66 0.71 0.80 0.88 0.96 1.06
1.71 1.63 1.56 1.55 1.56 1.62 1.68 1.75 1.70 1.72 1.75 1.87 1.87 2.01 2.11 2.24 2.22 2.20 2.29 2.39 2.58 2.77 2.40 2.17 2.23 2.08 1.83 1.58 1.42 1.27 1.08 1.03 0.90 0.79 0.67 0.66 0.66 0.68 0.72 0.77 0.79 0.83 0.89
1.42 1.32 1.35 1.36 1.35 1.33 1.37 1.35 1.32 1.41 1.55 1.71 1.83 1.94 1.84 1.89 1.96 2.02 2.15 2.31 2.51 2.74 2.61 2.52 2.61 2.56 2.29 1.94 1.76 1.56 1.23 1.05 0.96 0.92 0.77 0.66 0.68 0.70 0.71 0.76 0.80 0.81 0.82
1.10 1.08 1.15 1.18 1.17 1.15 1.13 1.13 1.20 1.28 1.41 1.53 1.64 1.67 1.58 1.63 1.69 1.83 1.90 2.07 2.29 2.53 2.62 2.60 2.71 2.71 2.49 2.25 2.13 1.77 1.51 1.44 1.15 1.09 0.98 0.81 0.70 0.70 0.74 0.75 0.79 0.84 0.84
1.03 1.05 1.09 1.12 1.12 1.15 1.22 1.33 1.40 1.42 1.46 1.44 1.40 1.37 1.32 1.41 1.51 1.68 1.76 1.85 1.99 2.21 2.35 2.47 2.66 2.70 2.58 2.48 2.41 2.06 1.84 1.73 1.51 1.25 1.19 0.97 0.86 0.79 0.77 0.77 0.79 0.85 0.92
1.07 1.10 1.17 1.21 1.25 1.22 1.16 1.32 1.45 1.41 1.44 1.41 1.33 1.18 1.07 1.13 1.21 1.36 1.33 1.56 1.77 1.97 2.07 2.24 2.46 2.68 2.53 2.49 2.35 2.20 2.02 1.96 1.84 1.57 1.51 1.23 1.05 0.90 0.75 0.72 0.74 0.82 0.96
1.12 1.11 1.10 1.16 1.13 0.92 0.99 1.15 1.27 1.31 1.40 1.41 1.29 1.15 1.02 0.99 1.03 1.11 1.14 1.22 1.41 1.62 1.81 2.09 2.29 2.46 2.34 2.26 2.35 2.36 2.29 2.09 1.98 1.84 1.93 1.80 1.54 1.38 1.11 0.85 0.81 0.84 0.97
1.11 1.15 1.14 1.12 1.09 1.04 1.08 1.07 1.06 1.16 1.27 1.27 1.29 1.28 1.06 0.87 0.98 0.99 1.05 1.04 1.11 1.23 1.41 1.72 1.91 2.01 2.15 2.15 2.38 2.48 2.58 2.47 2.30 2.19 2.36 2.36 2.19 2.00 1.40 1.18 1.12 0.94 0.91
1.16 1.19 1.18 1.14 1.21 1.20 1.16 1.02 1.02 1.02 1.15 1.21 1.20 1.16 1.16 1.11 1.03 1.01 1.05 1.08 0.99 0.99 1.08 1.12 1.30 1.60 2.10 2.38 2.40 2.46 2.68 2.66 2.47 2.37 2.47 2.58 2.38 2.28 1.82 1.39 1.15 0.89 0.81
1.18 1.18 1.17 1.11 1.13 1.22 1.17 1.03 0.98 0.97 1.11 1.16 1.17 1.14 1.10 1.11 1.09 0.97 1.02 1.06 1.01 0.95 0.95 1.05 1.16 1.38 1.63 1.95 2.15 2.23 2.34 2.48 2.55 2.51 2.50 2.63 2.54 2.43 2.42 2.11 1.52 1.15 0.88
1.32 1.27 1.22 1.15 1.12 1.15 1.10 0.90 0.86 0.87 0.99 1.07 1.16 1.10 0.98 0.90 0.92 0.87 0.97 1.06 1.00 0.97 1.00 1.02 1.03 1.11 1.26 1.44 1.53 1.53 1.65 1.82 2.01 2.17 2.11 2.32 2.56 2.65 2.85 2.80 2.28 1.68 1.29

GEFSMA_prec_meanprecacc_234.txt.gz
Total_Precipitation_Accumulation
1.87 2.02 2.02 2.22 2.20 2.27 2.47 2.81 2.87 3.07 3.13 3.10 2.78 2.42 2.27 2.12 1.95 2.09 2.20 2.11 2.02 2.24 2.72 3.13 3.03 2.80 2.54 2.52 2.37 1.96 1.68 1.57 1.39 1.09 1.00 1.08 1.07 0.98 0.87 0.83 0.77 0.71 0.59
2.43 2.65 2.68 2.71 2.49 2.46 2.72 2.97 3.10 3.62 3.58 3.44 2.97 2.68 2.41 2.30 2.11 2.03 2.23 2.37 2.06 2.03 2.36 3.02 3.33 3.12 2.89 2.87 2.66 2.18 1.84 1.67 1.53 1.16 0.94 0.96 1.02 1.01 0.95 0.90 0.80 0.68 0.55
2.82 2.99 2.95 2.85 2.79 2.77 2.97 3.16 3.34 3.52 3.36 3.24 3.08 2.87 2.63 2.38 2.08 2.05 2.10 2.31 2.19 2.04 2.23 2.59 3.01 3.11 3.14 3.15 2.90 2.47 1.99 1.70 1.48 1.21 0.94 0.88 0.90 0.93 0.92 0.93 0.86 0.67 0.49
2.97 3.28 3.10 2.93 3.21 3.06 3.23 3.63 3.65 3.68 3.65 3.44 3.25 3.00 2.76 2.52 2.05 1.92 1.90 2.19 2.53 2.18 2.27 2.54 2.68 2.77 3.20 3.37 3.21 2.96 2.51 2.01 1.57 1.30 1.07 1.02 1.02 0.99 0.95 0.87 0.85 0.68 0.47
2.86 3.16 3.06 3.10 3.16 3.43 3.47 3.24 3.74 3.83 3.75 3.56 3.02 2.83 2.47 2.26 2.06 1.84 1.93 2.00 2.35 2.23 2.24 2.31 2.47 2.62 3.16 3.65 3.73 3.59 3.26 2.76 2.15 1.79 1.70 1.60 1.54 1.36 1.15 0.97 0.83 0.70 0.51
2.74 3.14 2.97 2.95 3.04 3.38 3.37 3.36 3.70 3.70 3.46 3.47 2.83 2.54 2.33 1.95 1.93 1.96 1.78 1.90 2.05 1.78 1.92 2.19 2.63 2.32 2.48 2.78 3.27 3.62 3.69 3.58 3.12 2.95 2.96 2.68 2.44 2.00 1.47 1.16 0.93 0.79 0.64
2.62 3.03 2.78 3.05 2.99 3.09 3.13 3.16 3.41 3.51 3.20 3.26 3.25 2.78 2.16 1.75 1.71 1.70 1.72 1.80 1.77 1.83 2.21 2.55 2.72 2.67 2.40 2.11 2.21 2.73 3.46 3.87 3.58 3.28 3.37 3.41 3.31 2.71 1.92 1.47 1.14 0.91 0.77
2.46 2.63 2.83 2.70 2.73 2.90 2.93 2.97 3.23 3.19 2.81 2.90 3.17 3.20 2.57 2.22 1.77 1.34 1.65 1.74 1.73 1.98 2.10 2.17 2.49 2.75 2.65 2.73 2.15 1.95 2.62 3.36 3.62 3.44 3.28 3.44 3.46 2.86 2.18 1.87 1.49 1.14 0.97
2.31 2.39 2.55 2.55 2.55 2.45 2.67 2.87 2.80 2.81 2.68 2.60 2.75 3.15 2.89 2.46 2.02 1.53 1.39 1.47 1.71 1.92 1.94 2.06 2.06 2.25 2.33 2.71 2.68 2.19 2.00 2.26 2.95 3.60 3.63 3.47 3.30 2.80 2.36 2.16 1.92 1.53 1.29
2.10 2.12 2.17 2.17 2.22 2.23 2.50 2.30 2.30 2.55 2.68 2.53 2.55 2.56 2.62 2.69 2.54 1.94 1.48 1.40 1.61 1.76 1.76 1.68 1.80 2.02 2.05 2.25 2.42 2.19 1.89 1.75 2.08 2.83 3.39 3.47 3.21 2.70 2.41 2.39 2.51 2.28 1.78
1.98 1.87 1.99 2.02 2.02 2.02 2.11 2.14 2.40 2.38 2.45 2.43 2.42 2.43 2.56 2.60 2.45 2.25 1.88 1.71 1.65 1.47 1.49 1.56 1.66 1.85 1.99 2.10 2.31 2.14 2.11 1.80 1.79 1.97 2.43 2.85 2.98 2.87 2.57 2.57 2.93 3.06 2.71
1.80 1.78 1.85 1.95 1.92 1.90 2.03 2.09 2.14 2.15 2.21 2.27 2.23 2.23 2.43 2.34 2.27 2.36 2.05 1.88 1.81 1.52 1.50 1.53 1.54 1.68 1.77 1.85 1.74 1.86 1.84 1.62 1.53 1.49 1.53 1.85 2.22 2.44 2.52 2.67 3.03 3.31 3.31
1.57 1.56 1.67 1.78 1.75 1.74 1.85 1.95 1.96 2.06 2.12 2.13 2.07 2.10 2.17 2.11 2.13 2.27 2.32 2.11 1.94 1.64 1.62 1.54 1.46 1.61 1.57 1.79 1.75 1.58 1.36 1.27 1.15 1.09 1.12 1.25 1.44 1.68 1.90 2.19 2.62 2.98 3.18
1.41 1.49 1.57 1.57 1.58 1.61 1.63 1.91 1.95 2.01 2.07 2.02 1.90 2.19 2.10 1.88 1.97 2.14 2.34 2.54 2.38 2.00 1.94 1.76 1.53 1.47 1.56 1.65 1.59 1.39 1.11 1.05 0.96 0.92 0.88 0.92 1.05 1.17 1.32 1.49 1.79 2.05 2.30
1.62 1.64 1.62 1.64 1.66 1.73 1.84 2.06 2.10 2.08 2.11 2.06 2.11 2.25 2.09 1.89 1.89 1.95 2.28 2.58 2.75 2.43 2.13 1.92 1.74 1.47 1.50 1.42 1.41 1.28 1.24 1.10 0.91 0.87 0.84 0.77 0.80 0.89 0.99 1.10 1.21 1.37 1.49
1.83 1.81 1.82 1.80 1.72 1.79 1.96 2.11 2.12 2.09 2.14 2.16 2.21 2.34 2.32 2.15 2.13 2.11 2.30 2.53 2.72 2.75 2.33 1.98 1.92 1.64 1.52 1.28 1.35 1.22 1.15 1.16 0.95 0.83 0.81 0.73 0.70 0.72 0.75 0.83 0.91 0.99 1.10
1.74 1.68 1.64 1.64 1.64 1.69 1.76 1.82 1.78 1.80 1.81 1.92 1.91 2.06 2.17 2.28 2.26 2.25 2.36 2.46 2.65 2.83 2.45 2.21 2.27 2.12 1.89 1.65 1.48 1.34 1.17 1.11 0.98 0.89 0.76 0.73 0.73 0.74 0.77 0.80 0.83 0.88 0.94
1.43 1.35 1.39 1.42 1.41 1.39 1.45 1.44 1.40 1.49 1.62 1.76 1.88 2.00 1.89 1.95 2.01 2.07 2.21 2.37 2.56 2.79 2.65 2.56 2.66 2.60 2.36 2.01 1.84 1.66 1.31 1.12 1.04 1.01 0.86 0.75 0.75 0.77 0.77 0.82 0.85 0.85 0.86
1.13 1.13 1.20 1.24 1.23 1.23 1.21 1.21 1.29 1.37 1.49 1.59 1.70 1.73 1.65 1.69 1.73 1.88 1.95 2.12 2.34 2.59 2.66 2.63 2.75 2.75 2.56 2.35 2.24 1.87 1.59 1.52 1.21 1.16 1.05 0.88 0.78 0.76 0.79 0.79 0.82 0.87 0.87
1.06 1.10 1.19 1.24 1.22 1.25 1.30 1.41 1.49 1.51 1.55 1.53 1.50 1.46 1.40 1.46 1.57 1.74 1.80 1.88 2.03 2.25 2.39 2.49 2.69 2.74 2.65 2.56 2.50 2.13 1.90 1.79 1.55 1.29 1.23 1.02 0.91 0.83 0.81 0.79 0.81 0.87 0.95
1.10 1.13 1.24 1.33 1.37 1.33 1.24 1.40 1.54 1.50 1.53 1.51 1.40 1.24 1.13 1.19 1.27 1.41 1.37 1.59 1.80 2.00 2.11 2.26 2.48 2.70 2.57 2.54 2.39 2.24 2.05 1.98 1.85 1.59 1.52 1.24 1.07 0.93 0.79 0.75 0.77 0.84 0.99
1.15 1.13 1.13 1.23 1.20 0.99 1.07 1.22 1.33 1.37 1.45 1.47 1.33 1.19 1.06 1.03 1.08 1.16 1.18 1.26 1.44 1.65 1.83 2.11 2.31 2.49 2.37 2.30 2.38 2.38 2.30 2.10 2.00 1.85 1.94 1.80 1.55 1.40 1.13 0.87 0.83 0.86 0.98
1.15 1.18 1.17 1.16 1.12 1.07 1.13 1.12 1.11 1.21 1.32 1.31 1.34 1.32 1.09 0.90 1.02 1.02 1.09 1.08 1.15 1.27 1.44 1.74 1.94 2.05 2.19 2.18 2.40 2.49 2.59 2.47 2.31 2.19 2.36 2.36 2.19 2.01 1.41 1.19 1.13 0.96 0.93
1.18 1.21 1.20 1.17 1.23 1.23 1.21 1.07 1.07 1.07 1.19 1.26 1.25 1.20 1.19 1.14 1.06 1.04 1.09 1.12 1.02 1.02 1.11 1.15 1.33 1.63 2.13 2.40 2.42 2.47 2.69 2.67 2.47 2.37 2.48 2.59 2.38 2.29 1.82 1.39 1.16 0.90 0.81
1.20 1.19 1.19 1.13 1.15 1.24 1.23 1.09 1.03 1.00 1.14 1.21 1.21 1.17 1.13 1.14 1.12 1.00 1.05 1.08 1.02 0.97 0.98 1.09 1.20 1.41 1.66 1.98 2.17 2.24 2.34 2.49 2.56 2.51 2.51 2.64 2.56 2.45 2.43 2.11 1.53 1.16 0.89
1.33 1.29 1.24 1.18 1.16 1.20 1.16 0.96 0.91 0.89 1.01 1.10 1.19 1.13 1.00 0.92 0.95 0.91 0.99 1.08 1.00 0.98 1.03 1.05 1.06 1.13 1.28 1.45 1.54 1.54 1.66 1.83 2.01 2.17 2.12 2.33 2.59 2.67 2.87 2.82 2.30 1.70 1.30

GEFSMA_prec_meanprecacc_240.txt.gz
Total_Precipitation_Accumulation
1.88 2.03 2.03 2.23 2.21 2.29 2.49 2.83 2.88 3.09 3.16 3.14 2.84 2.47 2.32 2.18 2.01 2.14 2.25 2.17 2.09 2.30 2.80 3.22 3.13 2.91 2.62 2.59 2.48 2.13 1.78 1.63 1.44 1.14 1.03 1.12 1.12 1.03 0.94 0.87 0.79 0.73 0.60
2.45 2.66 2.70 2.72 2.50 2.48 2.74 3.00 3.11 3.64 3.61 3.48 3.00 2.69 2.43 2.34 2.14 2.06 2.27 2.42 2.14 2.10 2.47 3.14 3.45 3.24 3.02 2.97 2.77 2.34 1.94 1.73 1.59 1.20 0.97 0.99 1.07 1.07 0.99 0.94 0.82 0.69 0.57
2.86 3.02 2.98 2.87 2.81 2.79 2.99 3.20 3.37 3.55 3.40 3.27 3.11 2.88 2.65 2.40 2.10 2.09 2.14 2.35 2.25 2.12 2.36 2.74 3.17 3.25 3.28 3.30 3.06 2.67 2.11 1.77 1.53 1.25 0.97 0.90 0.93 0.96 0.95 0.95 0.88 0.69 0.50
3.01 3.32 3.13 2.95 3.23 3.07 3.24 3.66 3.68 3.71 3.69 3.48 3.28 3.02 2.78 2.53 2.08 1.97 1.96 2.25 2.59 2.23 2.36 2.67 2.84 2.94 3.36 3.57 3.47 3.19 2.65 2.10 1.63 1.35 1.11 1.05 1.04 1.00 0.97 0.90 0.88 0.71 0.49
2.92 3.21 3.10 3.13 3.19 3.46 3.50 3.27 3.78 3.87 3.79 3.59 3.05 2.86 2.49 2.29 2.10 1.88 1.98 2.06 2.41 2.30 2.33 2.41 2.60 2.77 3.33 3.89 4.05 3.83 3.43 2.89 2.25 1.87 1.76 1.65 1.58 1.39 1.18 1.00 0.86 0.73 0.53
2.80 3.20 3.02 2.98 3.07 3.41 3.41 3.40 3.76 3.75 3.51 3.50 2.86 2.58 2.38 1.98 1.96 2.00 1.83 1.96 2.11 1.83 1.97 2.24 2.69 2.41 2.63 3.03 3.55 3.87 3.89 3.73 3.24 3.04 3.02 2.74 2.50 2.06 1.51 1.19 0.96 0.81 0.66
2.68 3.08 2.82 3.09 3.01 3.11 3.16 3.19 3.46 3.58 3.26 3.31 3.29 2.83 2.21 1.79 1.76 1.76 1.78 1.87 1.83 1.89 2.26 2.61 2.78 2.75 2.56 2.36 2.42 2.93 3.66 4.04 3.70 3.37 3.44 3.46 3.36 2.76 1.97 1.51 1.17 0.92 0.78
2.53 2.68 2.87 2.75 2.77 2.94 2.96 3.00 3.28 3.25 2.88 2.99 3.22 3.24 2.62 2.27 1.82 1.40 1.70 1.80 1.80 2.05 2.18 2.25 2.59 2.88 2.84 2.98 2.34 2.12 2.78 3.51 3.73 3.53 3.36 3.51 3.52 2.90 2.22 1.91 1.53 1.17 0.99
2.36 2.43 2.60 2.61 2.60 2.51 2.71 2.90 2.85 2.86 2.76 2.72 2.82 3.20 2.92 2.50 2.06 1.58 1.43 1.53 1.78 1.99 2.01 2.15 2.18 2.41 2.51 2.93 2.87 2.35 2.16 2.40 3.05 3.69 3.72 3.57 3.38 2.87 2.44 2.24 1.99 1.59 1.33
2.14 2.16 2.22 2.22 2.27 2.27 2.54 2.35 2.38 2.62 2.79 2.65 2.62 2.61 2.67 2.73 2.58 1.99 1.52 1.46 1.68 1.83 1.83 1.78 1.92 2.14 2.16 2.37 2.54 2.30 2.00 1.83 2.16 2.90 3.48 3.55 3.28 2.78 2.50 2.49 2.62 2.39 1.87
2.01 1.91 2.04 2.08 2.08 2.06 2.16 2.21 2.47 2.46 2.55 2.51 2.48 2.48 2.62 2.66 2.49 2.29 1.92 1.76 1.71 1.53 1.55 1.64 1.76 1.97 2.10 2.19 2.38 2.20 2.19 1.87 1.85 2.04 2.51 2.94 3.07 2.95 2.65 2.66 3.02 3.15 2.80
1.83 1.81 1.89 2.02 1.98 1.95 2.08 2.14 2.21 2.23 2.29 2.36 2.30 2.29 2.51 2.41 2.34 2.43 2.11 1.94 1.85 1.58 1.56 1.60 1.62 1.76 1.84 1.91 1.79 1.92 1.89 1.67 1.59 1.55 1.59 1.91 2.30 2.53 2.60 2.76 3.13 3.40 3.41
1.59 1.58 1.69 1.83 1.80 1.79 1.91 2.02 2.02 2.12 2.20 2.22 2.14 2.15 2.20 2.15 2.19 2.34 2.40 2.16 1.98 1.69 1.67 1.59 1.53 1.67 1.61 1.83 1.80 1.63 1.40 1.33 1.24 1.18 1.20 1.31 1.51 1.75 1.96 2.25 2.68 3.05 3.25
1.43 1.51 1.59 1.59 1.63 1.67 1.70 1.98 2.01 2.07 2.13 2.09 1.96 2.24 2.16 1.95 2.04 2.21 2.40 2.59 2.43 2.04 1.98 1.80 1.57 1.51 1.60 1.69 1.63 1.43 1.15 1.11 1.03 1.01 0.99 1.03 1.15 1.27 1.41 1.58 1.87 2.12 2.36
1.64 1.66 1.65 1.65 1.69 1.78 1.91 2.13 2.17 2.14 2.19 2.14 2.17 2.30 2.15 1.95 1.95 1.99 2.31 2.62 2.79 2.46 2.17 1.96 1.78 1.51 1.53 1.45 1.44 1.31 1.29 1.17 0.97 0.93 0.91 0.86 0.91 1.02 1.13 1.21 1.30 1.45 1.55
1.85 1.82 1.84 1.82 1.76 1.83 2.02 2.17 2.19 2.17 2.22 2.24 2.28 2.40 2.38 2.20 2.16 2.14 2.34 2.58 2.76 2.79 2.36 2.03 1.97 1.70 1.57 1.32 1.38 1.24 1.19 1.21 1.00 0.89 0.90 0.84 0.83 0.86 0.90 0.96 1.01 1.06 1.15
1.75 1.69 1.66 1.66 1.67 1.73 1.82 1.88 1.85 1.88 1.89 1.98 1.97 2.12 2.22 2.32 2.29 2.29 2.40 2.50 2.70 2.88 2.49 2.27 2.35 2.17 1.93 1.68 1.51 1.38 1.22 1.16 1.04 0.95 0.84 0.83 0.83 0.85 0.89 0.92 0.91 0.94 0.99
1.44 1.36 1.41 1.44 1.44 1.44 1.50 1.47 1.46 1.56 1.71 1.86 1.95 2.05 1.96 2.02 2.07 2.13 2.26 2.43 2.64 2.85 2.70 2.61 2.71 2.64 2.38 2.03 1.86 1.71 1.37 1.18 1.09 1.08 0.93 0.82 0.84 0.86 0.86 0.91 0.92 0.92 0.92
1.14 1.15 1.23 1.28 1.28 1.28 1.25 1.25 1.34 1.44 1.57 1.72 1.81 1.80 1.70 1.76 1.79 1.95 2.03 2.19 2.41 2.64 2.70 2.66 2.77 2.77 2.58 2.36 2.26 1.90 1.63 1.56 1.27 1.22 1.11 0.93 0.84 0.84 0.88 0.88 0.89 0.91 0.91
1.07 1.12 1.23 1.29 1.27 1.32 1.36 1.48 1.56 1.58 1.63 1.63 1.58 1.53 1.47 1.52 1.62 1.81 1.88 1.93 2.08 2.29 2.42 2.51 2.70 2.75 2.66 2.58 2.51 2.15 1.93 1.83 1.59 1.32 1.26 1.05 0.94 0.87 0.84 0.82 0.85 0.90 0.97
1.11 1.17 1.29 1.38 1.44 1.40 1.32 1.48 1.61 1.56 1.58 1.55 1.44 1.28 1.17 1.24 1.33 1.47 1.43 1.64 1.84 2.03 2.13 2.28 2.49 2.72 2.58 2.55 2.41 2.26 2.07 2.00 1.87 1.60 1.53 1.25 1.08 0.94 0.80 0.77 0.78 0.86 1.01
1.18 1.17 1.18 1.27 1.24 1.04 1.13 1.28 1.39 1.42 1.50 1.51 1.37 1.22 1.10 1.08 1.14 1.21 1.23 1.30 1.47 1.67 1.85 2.12 2.32 2.50 2.38 2.32 2.42 2.41 2.33 2.11 2.01 1.86 1.95 1.81 1.56 1.40 1.13 0.88 0.84 0.87 1.00
1.17 1.21 1.20 1.21 1.17 1.11 1.17 1.16 1.15 1.25 1.36 1.36 1.39 1.37 1.14 0.94 1.07 1.05 1.12 1.11 1.18 1.29 1.47 1.76 1.95 2.06 2.21 2.20 2.44 2.52 2.61 2.48 2.32 2.20 2.36 2.36 2.20 2.02 1.41 1.19 1.13 0.96 0.93
1.20 1.23 1.23 1.20 1.26 1.25 1.23 1.10 1.10 1.11 1.24 1.33 1.32 1.26 1.24 1.18 1.10 1.06 1.11 1.13 1.03 1.05 1.15 1.19 1.36 1.67 2.17 2.44 2.46 2.50 2.71 2.69 2.48 2.38 2.49 2.61 2.39 2.30 1.83 1.40 1.17 0.91 0.82
1.22 1.21 1.20 1.15 1.18 1.26 1.25 1.11 1.06 1.04 1.19 1.29 1.29 1.23 1.17 1.17 1.16 1.03 1.06 1.09 1.04 0.99 1.03 1.14 1.25 1.46 1.71 2.03 2.22 2.28 2.37 2.51 2.57 2.52 2.53 2.66 2.57 2.46 2.44 2.12 1.54 1.18 0.91
1.35 1.31 1.25 1.20 1.18 1.22 1.19 0.99 0.94 0.92 1.05 1.14 1.23 1.15 1.02 0.94 0.97 0.92 1.01 1.09 1.01 0.99 1.05 1.08 1.09 1.18 1.32 1.49 1.57 1.56 1.68 1.86 2.04 2.20 2.15 2.37 2.63 2.71 2.90 2.84 2.32 1.71 1.32

GEFSMA_prec_meanprecacc_246.txt.gz
Total_Precipitation_Accumulation
1.92 2.06 2.07 2.28 2.24 2.32 2.53 2.88 2.93 3.14 3.21 3.22 2.98 2.64 2.53 2.36 2.15 2.25 2.35 2.25 2.19 2.40 2.91 3.32 3.21 2.98 2.69 2.65 2.58 2.35 1.99 1.74 1.51 1.17 1.06 1.13 1.14 1.07 0.99 0.93 0.84 0.76 0.62
2.50 2.71 2.73 2.76 2.54 2.51 2.79 3.05 3.17 3.70 3.67 3.54 3.10 2.83 2.61 2.52 2.30 2.19 2.37 2.50 2.22 2.20 2.57 3.26 3.54 3.33 3.12 3.06 2.89 2.57 2.19 1.86 1.65 1.26 1.02 1.02 1.11 1.12 1.07 1.03 0.87 0.73 0.58
2.91 3.07 3.01 2.90 2.86 2.83 3.03 3.24 3.42 3.61 3.45 3.33 3.17 2.97 2.78 2.54 2.22 2.19 2.23 2.43 2.33 2.21 2.46 2.86 3.29 3.37 3.42 3.46 3.23 2.91 2.40 1.96 1.62 1.32 1.03 0.95 0.99 1.01 1.01 1.02 0.92 0.72 0.52
3.06 3.38 3.17 3.00 3.30 3.10 3.27 3.72 3.75 3.79 3.77 3.56 3.36 3.08 2.86 2.62 2.15 2.03 2.03 2.33 2.70 2.33 2.46 2.81 3.00 3.09 3.53 3.79 3.72 3.49 2.94 2.30 1.77 1.45 1.19 1.10 1.09 1.04 1.01 0.94 0.92 0.73 0.51
2.97 3.27 3.16 3.22 3.28 3.50 3.55 3.31 3.85 3.96 3.88 3.70 3.13 2.92 2.55 2.36 2.15 1.93 2.04 2.13 2.50 2.37 2.41 2.52 2.76 2.93 3.50 4.12 4.40 4.20 3.71 3.07 2.39 1.98 1.84 1.71 1.63 1.42 1.21 1.05 0.90 0.76 0.55
2.86 3.27 3.11 3.07 3.14 3.47 3.48 3.47 3.83 3.84 3.61 3.60 2.91 2.64 2.44 2.03 2.01 2.07 1.89 2.01 2.16 1.88 2.03 2.33 2.81 2.53 2.78 3.23 3.98 4.32 4.19 3.92 3.37 3.14 3.09 2.79 2.54 2.09 1.54 1.22 0.99 0.84 0.69
2.73 3.15 2.87 3.17 3.08 3.19 3.24 3.26 3.52 3.64 3.34 3.39 3.38 2.91 2.27 1.83 1.80 1.80 1.83 1.92 1.88 1.94 2.32 2.68 2.86 2.85 2.68 2.58 2.80 3.32 3.98 4.26 3.85 3.48 3.52 3.51 3.39 2.78 1.99 1.53 1.19 0.94 0.80
2.56 2.72 2.92 2.81 2.83 3.02 3.05 3.08 3.36 3.32 2.96 3.08 3.31 3.34 2.69 2.33 1.87 1.43 1.75 1.85 1.86 2.11 2.22 2.29 2.63 2.95 2.94 3.24 2.66 2.39 3.02 3.70 3.89 3.66 3.44 3.57 3.57 2.95 2.25 1.95 1.57 1.20 1.02
2.39 2.47 2.63 2.65 2.65 2.56 2.79 2.99 2.93 2.95 2.86 2.84 2.93 3.29 3.01 2.60 2.15 1.65 1.49 1.58 1.83 2.03 2.05 2.19 2.23 2.47 2.60 3.09 3.07 2.52 2.33 2.57 3.18 3.79 3.81 3.64 3.44 2.92 2.47 2.29 2.05 1.64 1.38
2.17 2.20 2.26 2.27 2.32 2.31 2.60 2.41 2.42 2.70 2.90 2.76 2.70 2.70 2.74 2.82 2.70 2.12 1.62 1.54 1.74 1.87 1.88 1.83 1.97 2.21 2.23 2.45 2.65 2.40 2.08 1.91 2.24 2.98 3.55 3.62 3.35 2.83 2.55 2.55 2.70 2.48 1.96
2.03 1.93 2.07 2.12 2.12 2.10 2.21 2.27 2.54 2.55 2.65 2.62 2.57 2.56 2.69 2.74 2.58 2.39 2.04 1.87 1.79 1.61 1.61 1.71 1.84 2.05 2.16 2.26 2.47 2.27 2.23 1.91 1.89 2.09 2.57 3.00 3.14 3.04 2.74 2.73 3.10 3.24 2.90
1.85 1.84 1.92 2.05 2.01 1.99 2.13 2.21 2.29 2.32 2.40 2.46 2.41 2.38 2.59 2.49 2.44 2.53 2.22 2.06 1.97 1.68 1.64 1.69 1.72 1.87 1.94 1.98 1.84 1.96 1.93 1.71 1.62 1.59 1.63 1.95 2.36 2.62 2.72 2.87 3.24 3.51 3.51
1.61 1.60 1.71 1.85 1.83 1.83 1.96 2.09 2.10 2.20 2.30 2.32 2.24 2.23 2.27 2.21 2.26 2.43 2.50 2.26 2.08 1.78 1.76 1.67 1.63 1.79 1.71 1.90 1.86 1.68 1.43 1.37 1.28 1.22 1.24 1.35 1.55 1.82 2.06 2.34 2.77 3.16 3.35
1.45 1.53 1.60 1.61 1.65 1.71 1.74 2.06 2.10 2.15 2.22 2.17 2.03 2.31 2.23 2.00 2.11 2.29 2.49 2.69 2.52 2.14 2.08 1.90 1.68 1.60 1.68 1.74 1.69 1.48 1.18 1.14 1.06 1.03 1.03 1.08 1.20 1.33 1.48 1.67 1.96 2.20 2.45
1.67 1.68 1.66 1.66 1.71 1.80 1.94 2.19 2.24 2.21 2.26 2.21 2.24 2.37 2.23 2.02 2.01 2.05 2.39 2.70 2.88 2.57 2.28 2.07 1.87 1.58 1.59 1.50 1.49 1.34 1.32 1.20 1.00 0.96 0.94 0.90 0.95 1.07 1.19 1.30 1.40 1.53 1.63
1.87 1.84 1.85 1.83 1.78 1.85 2.05 2.22 2.24 2.22 2.29 2.31 2.35 2.47 2.45 2.27 2.22 2.19 2.40 2.66 2.85 2.90 2.46 2.11 2.05 1.76 1.62 1.37 1.43 1.27 1.22 1.23 1.02 0.91 0.93 0.87 0.87 0.91 0.96 1.04 1.10 1.15 1.24
1.77 1.70 1.68 1.69 1.70 1.77 1.86 1.93 1.90 1.94 1.96 2.05 2.03 2.19 2.31 2.40 2.37 2.37 2.49 2.59 2.78 2.97 2.58 2.34 2.42 2.23 1.97 1.72 1.54 1.40 1.24 1.18 1.05 0.97 0.87 0.85 0.85 0.87 0.92 0.97 0.99 1.03 1.09
1.47 1.39 1.43 1.46 1.47 1.47 1.53 1.51 1.50 1.62 1.78 1.95 2.07 2.16 2.07 2.14 2.17 2.22 2.36 2.52 2.72 2.93 2.79 2.69 2.77 2.69 2.44 2.08 1.89 1.73 1.38 1.19 1.11 1.10 0.95 0.83 0.85 0.87 0.89 0.95 0.99 0.98 0.98
1.16 1.17 1.25 1.30 1.30 1.30 1.28 1.28 1.39 1.50 1.61 1.78 1.91 1.91 1.80 1.88 1.90 2.06 2.13 2.27 2.47 2.70 2.76 2.72 2.82 2.81 2.61 2.38 2.28 1.92 1.64 1.58 1.28 1.24 1.13 0.95 0.86 0.86 0.91 0.93 0.93 0.94 0.93
1.09 1.13 1.25 1.31 1.29 1.33 1.38 1.51 1.60 1.64 1.70 1.69 1.64 1.59 1.53 1.60 1.70 1.90 1.97 2.04 2.17 2.37 2.49 2.56 2.74 2.78 2.68 2.59 2.53 2.18 1.96 1.85 1.61 1.34 1.27 1.06 0.96 0.88 0.86 0.84 0.86 0.91 0.98
1.13 1.18 1.30 1.39 1.45 1.42 1.35 1.51 1.64 1.59 1.63 1.62 1.50 1.34 1.22 1.30 1.39 1.52 1.48 1.70 1.90 2.09 2.20 2.35 2.55 2.76 2.62 2.59 2.44 2.30 2.11 2.04 1.90 1.62 1.55 1.27 1.10 0.95 0.81 0.77 0.79 0.87 1.02
1.19 1.18 1.19 1.28 1.25 1.05 1.15 1.31 1.42 1.45 1.53 1.56 1.43 1.28 1.16 1.15 1.20 1.25 1.27 1.34 1.51 1.72 1.91 2.17 2.37 2.54 2.42 2.36 2.46 2.45 2.36 2.16 2.05 1.89 1.98 1.84 1.57 1.42 1.15 0.88 0.84 0.88 1.01
1.18 1.22 1.21 1.22 1.18 1.13 1.19 1.18 1.17 1.27 1.38 1.40 1.43 1.42 1.18 0.98 1.11 1.08 1.15 1.14 1.21 1.32 1.50 1.79 1.99 2.09 2.25 2.24 2.47 2.55 2.65 2.53 2.38 2.25 2.40 2.39 2.23 2.04 1.43 1.21 1.15 0.97 0.95
1.22 1.25 1.25 1.22 1.27 1.26 1.24 1.11 1.11 1.12 1.26 1.34 1.33 1.29 1.28 1.22 1.12 1.09 1.13 1.15 1.05 1.07 1.18 1.22 1.40 1.71 2.20 2.47 2.48 2.53 2.76 2.74 2.53 2.43 2.52 2.64 2.43 2.34 1.86 1.42 1.20 0.93 0.84
1.24 1.23 1.22 1.16 1.19 1.27 1.27 1.13 1.07 1.05 1.20 1.30 1.31 1.26 1.21 1.22 1.20 1.04 1.07 1.10 1.05 1.01 1.05 1.17 1.28 1.49 1.74 2.06 2.25 2.31 2.40 2.56 2.61 2.56 2.56 2.70 2.63 2.52 2.49 2.17 1.58 1.20 0.93
1.37 1.33 1.27 1.21 1.19 1.23 1.21 1.01 0.96 0.94 1.06 1.15 1.24 1.17 1.05 0.97 1.00 0.94 1.02 1.10 1.03 1.01 1.06 1.09 1.11 1.20 1.35 1.53 1.62 1.59 1.70 1.89 2.06 2.22 2.17 2.40 2.67 2.76 2.95 2.88 2.35 1.74 1.33